Regional Weather Roundup
Issued by NWS Little Rock, AR

Home | Current Version | Previous Version | Text Only | Print | Product List | Glossary On
Versions: 1 2 3 4 5 6 7 8 9 10 11 12 13 14 15 16 17 18 19 20 21 22 23 24 25 26 27 28 29 30 31 32 33 34 35 36 37 38 39 40 41 42 43 44 45 46 47 48 49 50
000
ASUS44 KLZK 230012
RWRLZK

WEATHER ROUNDUP FOR ARKANSAS
NATIONAL WEATHER SERVICE LITTLE ROCK AR
600 PM CST SUN JAN 22 2017

NOTE: "FAIR" INDICATES FEW OR NO CLOUDS BELOW 12,000 FEET WITH NO
SIGNIFICANT WEATHER AND/OR OBSTRUCTIONS TO VISIBILITY.

ARZ001-003-010-029-230100-
NORTHWEST ARKANSAS

CITY           SKY/WX    TMP DP  RH WIND       PRES   REMARKS
FAYETTEVILLE   CLOUDY    45  42  89 NW16G24   29.69R
6HR MIN TEMP:  45; 6HR MAX TEMP:  53; 6HR PCP: TRACE;

FORT SMITH     CLOUDY    51  41  68 NW17G25   29.70R
6HR MIN TEMP:  51; 6HR MAX TEMP:  58; 6HR PCP: TRACE;

HARRISON       CLOUDY    45  43  93 NW15G22   29.62R
6HR MIN TEMP:  45; 6HR MAX TEMP:  50; 6HR PCP:  0.23;

BENTONVILLE    CLOUDY   N/A N/A N/A N14G21    29.70R
ROGERS         CLOUDY    45  40  82 N14       29.70R
6HR MIN TEMP:  45; 6HR MAX TEMP:  50; 6HR PCP:  0.01;

SILOAM SPGS    CLOUDY    45  39  81 N15G21    29.71R
6HR MIN TEMP:  45; 6HR MAX TEMP:  50; 6HR PCP:  0.01;

HIGHFILL       CLOUDY    45  42  89 N16       29.70R
6HR MIN TEMP:  45; 6HR MAX TEMP:  51; 6HR PCP:  0.01;

SPRINGDALE     CLOUDY    46  43  87 NW14G20   29.70R
$$

ARZ004-005-016-230100-
NORTH CENTRAL ARKANSAS

CITY           SKY/WX    TMP DP  RH WIND       PRES   REMARKS
BATESVILLE     CLOUDY    52  45  76 NW7G18    29.52R
6HR MIN TEMP:  52; 6HR MAX TEMP:  55; 6HR PCP:  0.02;

FLIPPIN        CLOUDY    48  41  76 N9G17     29.57R
6HR MIN TEMP:  48; 6HR MAX TEMP:  55; 6HR PCP:  0.22;

MTN HOME       CLOUDY    46  44  93 N8G18     29.58R
6HR MIN TEMP:  46; 6HR MAX TEMP:  52; 6HR PCP:  0.07;

$$

ARZ040-041-230100-
WEST CENTRAL ARKANSAS

CITY           SKY/WX    TMP DP  RH WIND       PRES   REMARKS
MENA           CLOUDY    54  50  87 NW10      29.65R
MOUNT IDA      CLOUDY    53  46  77 NW17G26   29.56R
6HR MIN TEMP:  53; 6HR MAX TEMP:  57; 6HR PCP: TRACE;

$$

ARZ009-017-025-026-028-230100-
NORTHEAST ARKANSAS

CITY           SKY/WX    TMP DP  RH WIND       PRES   REMARKS
CORNING        LGT RAIN  55  54  94 NW20      29.46R
JONESBORO      LGT RAIN  59  53  80 N15G21    29.41R
6HR MIN TEMP:  56; 6HR MAX TEMP:  60; 6HR PCP:  0.22;

NEWPORT        LGT RAIN  52  48  87 N26G32    29.46R
6HR MIN TEMP:  53; 6HR MAX TEMP:  57;

WALNUT RIDGE   CLOUDY    54  48  82 NW25G32   29.45R
6HR MIN TEMP:  54; 6HR MAX TEMP:  61; 6HR PCP:  0.04;

BLYTHEVILLE    CLOUDY    58  56  93 N16       29.38R
6HR MIN TEMP:  56; 6HR MAX TEMP:  58; 6HR PCP:  0.28;

$$

ARZ022-023-033-042-044-230100-
CENTRAL ARKANSAS

CITY           SKY/WX    TMP DP  RH WIND       PRES   REMARKS
LITTLE ROCK    CLOUDY    54  50  86 NW18G29   29.49R
6HR MIN TEMP:  52; 6HR MAX TEMP:  55; 6HR PCP:  0.02;

N LITTLE ROCK    N/A     53  49  87 N10G23    29.51R
6HR MIN TEMP:  52; 6HR MAX TEMP:  54;

JACKSONVILLE   CLOUDY    55  52  88 NW10G20   29.49R
                                      6HR PCP:  0.08;

SEARCY         CLOUDY    53  51  93 N16G23    29.49R
6HR MIN TEMP:  53; 6HR MAX TEMP:  56; 6HR PCP:  0.12;

HOT SPRINGS    CLOUDY    55  48  77 NW12G21   29.55R
6HR MIN TEMP:  55; 6HR MAX TEMP:  58; 6HR PCP: TRACE;

RUSSELLVILLE   CLOUDY    53  45  74 NW15      29.56R
6HR MIN TEMP:  53; 6HR MAX TEMP:  57; 6HR PCP: TRACE;

CLINTON        CLOUDY    52  46  82 N13G25    29.55R
$$

ARZ036-230100-
EAST ARKANSAS

CITY           SKY/WX    TMP DP  RH WIND       PRES   REMARKS
WEST MEMPHIS   LGT RAIN  56  56 100 N8        29.36R
6HR MIN TEMP:  53; 6HR MAX TEMP:  56; 6HR PCP:  0.14;

$$

ARZ050-053-066-070-073-230100-
SOUTHWEST ARKANSAS

CITY           SKY/WX    TMP DP  RH WIND       PRES   REMARKS
ARKADELPHIA    CLOUDY    57  50  77 NW15G21   29.54R
6HR MIN TEMP:  53; 6HR MAX TEMP:  58; 6HR PCP:  0.09;

CAMDEN         MOCLDY    55  50  82 W8        29.52R
TEXARKANA      CLOUDY    54  49  83 NW21G32   29.61R
6HR MIN TEMP:  53; 6HR MAX TEMP:  57; 6HR PCP:  0.07;

EL DORADO        N/A    N/A N/A N/A MISG      29.52R
DE QUEEN       PTCLDY    53  46  77 NW12G26   29.65R
6HR MIN TEMP:  53; 6HR MAX TEMP:  59; 6HR PCP: TRACE;

$$

ARZ056-057-069-230100-
SOUTHEAST ARKANSAS

CITY           SKY/WX    TMP DP  RH WIND       PRES   REMARKS
PINE BLUFF     LGT RAIN  54  51  90 NW15G22   29.46R
6HR MIN TEMP:  53; 6HR MAX TEMP:  60; 6HR PCP:  0.24;

STUTTGART      CLOUDY    55  48  76 NW21G28   29.44R
6HR MIN TEMP:  54; 6HR MAX TEMP:  57; 6HR PCP:  0.17;

MONTICELLO     LGT RAIN  54  52  93 W8        29.45R
6HR MIN TEMP:  53; 6HR MAX TEMP:  57; 6HR PCP:  0.13;


$$





USA.gov is the U.S. government's official web portal to all federal, state and local government web resources and services.